CZ-2D DEB, 44605

Orbit data source: Space-Track

CZ-2D DEB, 44605 is space debris in SSO originally from a launch on Fri, 11 Nov 2016 UTC launched from the Jiuquan Satellite Launch Center, China (JSC). Debris objects in space refer to the collection of defunct objects orbiting the Earth. Examples of debris include non-operational satellites, rocket bodies, and fragments generated from explosions, collisions, or faulty payload assembly.

Loading next visibility...
Identifier
44605, 2016-068E
Orbit
SSO
Last TLE update
2 days ago
Origin
Manufacturer
Unknown
Mission
Spacecraft
Bus & Motor
Unknown
Mass
Unknown
Launch date (UTC)
2016-11-11 (8 years ago)
Launch vehicle
Unknown
Launch site
Jiuquan Satellite Launch Center, China (JSC)
Object type
Payload
Rocket body
Debris
Shape & HBR
Unknown
Radar Cross Section
Small (<0.1 m²)

Expand to show TLE details & history

TLE from 2 days ago
0 CZ-2D DEB
1 44605U 16068E   25127.51565383  .00000536  00000-0  38819-3 0  9999
2 44605  98.4456 223.1374 0228112 295.3564  62.4133 13.88749262424839
Epoch: 2025-05-07T12:22Z
Definitive object data (Epoch: 2025-05-07T12:22:32.49Z)
Latitude
Longitude
171.90264°
Altitude
861.688 km
Speed
7.459 km/s
True Right ascension
14h 52m 32s
True Declination
0° 00' 00"
Sunlit
Object was in full shadow at TLE epoch
Visualization TLE readout
Latitude
49.1141°
Longitude
3.3193°
Altitude
1,097.282 km
Speed
7.23 km/s
Apparent Right ascension
03h 09m 00s
Apparent Declination
9° 06' 14"
Sunlit
Object is in daylight
Visualization observer readout
Local Sidereal Time
14:39:46
Azimuth
350.491° N
Elevation
-40.515°
Doppler factor
1
Orbital elements
Apogee altitude
1,096.915 km
Perigee altitude
763.491 km
Semi-major axis
7,308.34 km
Eccentricity
0.0228112
Inclination
98.4456°
RAAN
223.1374°
Arg. of periapsis
295.3564°
True anomaly
64.76042°
Mean anomaly
62.4133°
Eccentric anomaly
63.58382°
Mean motion
3.47388 °/min
BSTAR
0.00038819
Orbital period
103.63 mins
Loading maneuver chart data...
Loading SW <> Apogee altitude chart data...
Loading historical data...
Loading historical data...
Loading historical data...
Loading historical data...
Loading historical data...
Loading historical data...
Loading historical data...

CZ-2D DEB Visibility forecast

Observer location: undefined°, undefined°

Span
Click to sort rows by Start time (UTC) header in descending order
Start Az.
Max El. time (UTC)
Max El. Az.
Max El.
End time (UTC)
End Az.
7 mins2025-05-09 07:43:55.329Z233.59° WSW2025-05-09 07:46:55.329Z265.993° W17.298°2025-05-09 07:50:55.329Z308.573° NW
10 mins2025-05-09 18:35:55.329Z32.686° NE2025-05-09 18:39:55.329Z85.817° E36.002°2025-05-09 18:45:55.329Z168.635° S
10 mins2025-05-09 20:17:55.329Z347.568° N2025-05-09 20:22:55.329Z287.607° WNW27.186°2025-05-09 20:27:55.329Z236.907° WSW
4 mins2025-05-10 04:33:55.329Z70.458° E2025-05-10 04:34:55.329Z60.133° ENE13.684°2025-05-10 04:37:55.329Z30.748° NE
11 mins2025-05-10 06:11:55.329Z161.447° S2025-05-10 06:16:55.329Z24.58° NE44.549°2025-05-10 06:22:55.329Z348.455° N
|